Regional Weather Roundup
Issued by NWS

Home | Current Version | Previous Version | Graphics & Text | Print | Product List | Glossary Off
Versions: 1 2 3 4 5 6 7 8 9 10 11 12 13 14 15 16 17 18 19 20 21 22 23 24 25 26 27 28 29 30 31 32 33 34 35 36 37 38 39 40 41 42 43 44 45 46 47 48 49 50

000
ASUS43 KLSX 230407
RWRMO

WEATHER SUMMARY FOR MISSOURI
NATIONAL WEATHER SERVICE SPRINGFIELD MO
1000 PM CST MON DEC 22 2014

NOTE: "FAIR" INDICATES FEW OR NO CLOUDS BELOW 12,000 FEET WITH NO
       SIGNIFICANT WEATHER AND/OR OBSTRUCTIONS TO VISIBILITY.
       CURRENT SKY AND/OR WEATHER CONDITIONS ARE NOT AVAILABLE FOR
       CHILLICOTHE AND FARMINGTON.

MOZ001>031-035>038-043-044-053-054-230500-
...NORTHERN AND WESTERN MISSOURI...

CITY           SKY/WX    TMP DP  RH WIND       PRES   REMARKS
KANSAS CTY INT PTCLDY    40  37  89 W7        29.52R
KANSAS C DTWN  CLEAR     44  38  79 SW8       29.52R
LEE`S SUMMIT   CLEAR     41  37  86 SW8       29.54R
ST JOSEPH      PTCLDY    41  36  82 W12       29.50R
CHILLICOTHE      N/A     44  39  82 VRB7      29.48S
KIRKSVILLE     CLOUDY    45  44  97 SW8       29.45S

$$
MOZ066>068-077>081-088>096-101>105-230500-
...SOUTHWEST MISSOURI...

CITY           SKY/WX    TMP DP  RH WIND       PRES   REMARKS
SPRINGFIELD    CLEAR     42  39  89 W7        29.60R
JOPLIN         CLEAR     40  37  89 SW6       29.63S

$$
MOZ032>034-039>042-045>050-055>058-069>072-230500-
...CENTRAL MISSOURI...

CITY           SKY/WX    TMP DP  RH WIND       PRES   REMARKS
COLUMBIA       CLOUDY    47  45  93 W13       29.52R
JEFFERSON CITY CLOUDY    48  45  89 W8        29.53S
ROLLA          CLOUDY    47  45  93 SW9       29.54R
SEDALIA        CLEAR     44  40  85 SW9       29.54R
WHITEMAN AFB   CLOUDY    43  40  89 SW9       29.53S
WARRENSBURG    CLOUDY    43  37  81 SW12      29.54S
OSAGE BEACH    MOCLDY    46  39  76 W9        29.57R

$$
MOZ051-052-059>065-230500-
...EAST CENTRAL MISSOURI...

CITY           SKY/WX    TMP DP  RH WIND       PRES   REMARKS
ST LOUIS INTL  CLOUDY    51  48  89 S9        29.53S
SPIRIT OF STL  LGT RAIN  50  48  93 VRB3      29.52S
ST CHARLES     CLOUDY    49  48  97 S10       29.52S

$$
MOZ072>076-082>087-097>100-106>115-230500-
...SOUTH CENTRAL AND SOUTHEAST MISSOURI...

CITY           SKY/WX    TMP DP  RH WIND       PRES   REMARKS
CAPE GIRARDEAU CLOUDY    53  52  96 S10       29.60S
FARMINGTON     CLOUDY    52  48  87 S7        29.58R
POPLAR BLUFF   CLOUDY    53  50  89 SW9       29.60S
WEST PLAINS    CLOUDY    49  46  90 W9        29.60R

$$


USA.gov is the U.S. government's official web portal to all federal, state and local government web resources and services.